一网星座-0546星 (ONEWEB-0546)

导读

ONEWEB-0546是英国一网(OneWeb)公司的第二代低轨通信卫星,于2023年3月26日发射升空。该卫星隶属于OneWeb卫星星座,运行在1200公里近地轨道,依托Ku频段有效载荷提供高速互联网接入服务,旨在为全球偏远地区提供价格适宜的网络连接,第二代卫星还将新增导航定位功能,进一步拓展服务能力。

基本信息
目录编号:
56048
目录名称:
ONEWEB-0546
国际标识:
2023-043C
轨道中心:
EARTH
卫星名称:
一网星座-0546星
卫星全名:
一网星座-0546星 (ONEWEB-0546)
卫星状态:
在轨 (已飞行1266 天)
发射日期:
2023-03-26 UTC
国别 :
英国 (GB)
星等 :
--
该卫星已列入 空间交会检测服务 Space Conjunction Data Service (SCDS) ,当前飞行风险评估等级: 无高风险
轨道信息
数据来源 国际轨道数据 AOE轨道数据
星历时间 2026-09-12T03:29:28+0800
10小时前
查看轨道信息
2026-09-11T06:00:00+0800
1天前
查看轨道信息
半长轴 7575.889km 7575.885km
偏心率 0.0001614 0.0001494
轨道倾角 87.914° 87.915°
近地点辐角 96.042° 96.992°
升交点赤经 211.572° 211.748°
平近点角 264.089° 341.288°
近地点 1196.529km 1196.616km
远地点 1198.975km 1198.88km
周期 109.373分钟 109.373分钟
每日圈数 13.165956 13.165967
详细信息
平衡模式:
三轴稳定
覆盖范围:
全球
运营商:
一网卫星公司
运营商所在国:
英国
制造商(研发单位):
一网卫星公司
制造商所在国:
英国
使用方式:
暂无
卫星简介
OneWeb卫星网络由648颗重约125公斤的微型卫星组成,运行在1200公里的轨道上。 每颗卫星都能够提供至少每秒8千兆位的吞吐量,以使用其高吞吐量的Ku频段有效载荷为家庭和移动平台提供互联网接入。该卫星仍在工作。
2D轨道图
3D轨道图
轨道高度分析图
轨道倾角分析图
轨道综合分析图
查看轨道综合分析图
交会数据列表
事件ID 空间交会对象 最接近时刻(TCA) 交会距离 交会风险概率(CRP) 交会风险指数(CRI) 操作
CDM_260913-010304-534805-604824
2026-09-13T
01:03:44+0000
0.675 km
远距离
8.955433E-5 中风险 0.74
与全量物体交会距离演化趋势
与全量物体交会风险概率演化趋势